JCSAT-16

Last updated on Jan. 17, 2021, 6:29 a.m. UTC

1 41729U 16050A   21016.82215579 -.00000350  00000-0  00000-0 0  9993
2 41729   0.0581  94.3505 0000314 212.9261 233.0522  1.00272110 16240
UTC
Height (km)
Latitude
Longitude
Inclination
Orbital Period
UTC large
Height (km)
Speed (km/s)
/
Latitude / Longitude
Inclination (degrees)
Orbital Period (minutes)
Azimuth
Elevation
Range (km)
Doppler Factor
iOS Compass Heading
iOS Angle

Next 30 passes for location: Hong Kong

Rise time Rise Azimuth (degrees) Set time Set Azimuth (degrees) Duration Max altitude (degrees)

No matching passes for this satellites